ISARA (43050 NORAD) Tracking and Keplerian Element Data

This shows tracking and keplerian element data for the satellite.

Feedback or suggestion? Click here.




ElementValue
Catalog43050
NameISARA
Epoch Orbit5269
Epoch Day318.20129729
Epoch Year2018
RAAN28.5289
Inclination51.6398
Eccentricity0.0002743
Argument of Perigee103.6209
Mean Anonmoly256.5082
Mean Motion15.41049751
Decay Rate4.885E-05
L11 43050U 17071P 18318.20129729 .00004885 00000-0 12600-3 0 9998
L22 43050 51.6398 28.5289 0002743 103.6209 256.5082 15.41049751 52694

Live tracking and technical data element details for ISARA (NORAD 43050). ISARA can be tracked NOW for your location showing map with azimuth and elevation plus other details from your city location.

Track the satellite on the map from your city or location and see movement details for azimuth, elevation, latitude, longitude, range, height, and movement on the map or in text.







IsCatalogInMostPopularTable: catalog: 43050, numindb: 132
Update: records affected: 1



GetName: 43050 ISARA

Hit Count: updated at: Fri, 16 Nov 2018 03:09:03 GMT